Weather History for KPAM - July, 2013

Change the Weather History Date:

Tuesday, July 23, 2013

  Actual Average Record
Temperature  
Mean Temperature 78 °F -  
Max Temperature 86 °F 87 °F 95 °F (2010)
Min Temperature 71 °F 73 °F 71 °F (2013)
Cooling Degree Days 14    
Growing Degree Days 28 (Base 50)    
Moisture  
Dew Point 75 °F    
Average Humidity 86    
Maximum Humidity 95    
Minimum Humidity 73    
Precipitation  
Precipitation 0.40 in - - ()
Sea Level Pressure  
Sea Level Pressure 30.03 in    
Wind  
Wind Speed 9 mph (West)    
Max Wind Speed 31 mph    
Max Gust Speed 40 mph    
Visibility 8 miles    
Events Rain , Thunderstorm    
Averages and records for this station are not official NWS values.
T = Trace of Precipitation, MM = Missing Value Source: NWS Daily Summary

Daily Weather History Graph

Daily Weather History Graph

Search for Another Location

Airport or City:

Trip Planner

Search our weather history database for the weather conditions in past years. The results will help you decide how hot, cold, wet, or windy it might be!

Date:

Astronomy

Jul. 23, 2013 Rise Set
Actual Time 5:55 AM CDT 7:41 PM CDT
Civil Twilight 5:29 AM CDT 8:07 PM CDT
Nautical Twilight 4:57 AM CDT 8:39 PM CDT
Astronomical Twilight 4:23 AM CDT 9:13 PM CDT
Moon 8:20 PM CDT (7/23) 6:54 AM CDT (7/23)
Length of Visible Light 14h 38m
Length of Day
13h 45m
Full, 99% of the Moon is Illuminated
Jul 23
Full
Jul 29
Last Quarter
Aug 6
New
Aug 14
First Quarter
Aug 20
Full

Hourly Weather History & Observations

Time (CDT) Temp. Heat Index Dew Point Humidity Pressure Visibility Wind Dir Wind Speed Gust Speed Precip Events Conditions
12:13 AM 77.0 °F - 75.2 °F 94% 30.05 in 10.0 mi SW 8.1 mph - N/A Rain Light Rain
12:58 AM 76.3 °F - 73.2 °F 90% 30.04 in 10.0 mi WSW 9.2 mph - 0.00 in   Clear
1:58 AM 77.5 °F - 73.6 °F 88% 30.03 in 10.0 mi WSW 5.8 mph - N/A   Partly Cloudy
2:58 AM 77.7 °F - 74.5 °F 90% 30.03 in 10.0 mi WSW 5.8 mph - N/A   Clear
3:58 AM 78.4 °F - 74.3 °F 87% 30.03 in 10.0 mi West 8.1 mph - N/A   Clear
4:58 AM 79.3 °F - 74.3 °F 84% 30.04 in 10.0 mi West 9.2 mph - N/A   Partly Cloudy
5:43 AM 78.8 °F - 75.2 °F 89% 30.04 in 10.0 mi West 8.1 mph - N/A   Mostly Cloudy
5:48 AM 80.6 °F 86.2 °F 75.2 °F 84% 30.04 in 10.0 mi West 9.2 mph - N/A   Mostly Cloudy
5:58 AM 79.9 °F - 75.4 °F 86% 30.06 in 10.0 mi West 9.2 mph - N/A   Mostly Cloudy
6:43 AM 80.6 °F 86.2 °F 75.2 °F 84% 30.05 in 10.0 mi West 9.2 mph - N/A   Mostly Cloudy
6:58 AM 80.8 °F 87.2 °F 76.5 °F 87% 30.06 in 10.0 mi West 8.1 mph - 0.01 in   Scattered Clouds
7:58 AM 82.4 °F 91.2 °F 77.5 °F 85% 30.06 in 6.0 mi WSW 9.2 mph - N/A   Scattered Clouds
8:15 AM 82.4 °F 90.9 °F 77.0 °F 84% 30.05 in 5.0 mi WSW 9.2 mph - N/A Thunderstorm Partly Cloudy
8:58 AM 83.1 °F 92.9 °F 77.9 °F 84% 30.06 in 5.0 mi West 10.4 mph - N/A   Scattered Clouds
9:15 AM 82.4 °F 90.9 °F 77.0 °F 84% 30.05 in 5.0 mi WSW 9.2 mph - N/A Thunderstorm Scattered Clouds
9:26 AM 84.2 °F 96.1 °F 78.8 °F 84% 30.05 in 4.0 mi WSW 11.5 mph - N/A Rain , Thunderstorm Light Thunderstorms and Rain
9:31 AM 84.2 °F 94.1 °F 77.0 °F 79% 30.05 in 2.5 mi WSW 10.4 mph - N/A Rain , Thunderstorm Light Thunderstorms and Rain
9:36 AM 84.2 °F 94.1 °F 77.0 °F 79% 30.05 in 3.0 mi West 10.4 mph - N/A Rain , Thunderstorm Light Thunderstorms and Rain
9:48 AM 82.4 °F 92.4 °F 78.8 °F 89% 30.05 in 3.0 mi West 6.9 mph - N/A Rain Light Rain Showers
9:57 AM 80.6 °F 87.1 °F 77.0 °F 89% 30.06 in 3.0 mi West 12.7 mph 20.7 mph N/A Rain , Thunderstorm Thunderstorms and Rain
9:58 AM 80.6 °F 87.1 °F 77.0 °F 89% 30.07 in 4.0 mi West 11.5 mph 20.7 mph 0.17 in Rain , Thunderstorm Light Thunderstorms and Rain
10:08 AM 77.0 °F - 73.4 °F 89% 30.06 in 10.0 mi West 4.6 mph - N/A Rain , Thunderstorm Light Thunderstorms and Rain
10:14 AM 77.0 °F - 73.4 °F 89% 30.05 in 10.0 mi West 5.8 mph - N/A Thunderstorm Scattered Clouds
10:58 AM 82.8 °F 91.6 °F 77.2 °F 83% 30.06 in 10.0 mi West 8.1 mph - 0.00 in   Partly Cloudy
11:58 AM 85.6 °F 97.7 °F 78.3 °F 78% 30.06 in 10.0 mi WSW 18.4 mph 23.0 mph N/A   Mostly Cloudy
12:58 PM 84.0 °F 91.5 °F 74.5 °F 73% 30.05 in 10.0 mi SW 12.7 mph - N/A   Mostly Cloudy
1:58 PM 85.6 °F 97.3 °F 77.7 °F 77% 30.02 in 10.0 mi WSW 16.1 mph - N/A   Scattered Clouds
2:58 PM 86.7 °F 99.9 °F 78.4 °F 76% 30.00 in 10.0 mi WSW 15.0 mph - N/A   Scattered Clouds
3:58 PM 85.6 °F 98.2 °F 78.6 °F 79% 29.98 in 10.0 mi WSW 16.1 mph 21.9 mph N/A   Scattered Clouds
4:58 PM 85.8 °F 97.3 °F 77.4 °F 76% 29.98 in 10.0 mi West 17.3 mph - N/A   Scattered Clouds
5:58 PM 85.3 °F 96.7 °F 77.7 °F 78% 29.98 in 10.0 mi WSW 13.8 mph - N/A   Scattered Clouds
6:58 PM 83.3 °F 92.1 °F 76.6 °F 80% 29.99 in 10.0 mi West 15.0 mph 24.2 mph N/A   Mostly Cloudy
7:28 PM 82.4 °F 90.9 °F 77.0 °F 84% 30.00 in 10.0 mi NW 31.1 mph 40.3 mph N/A   Overcast
7:29 PM 82.4 °F 90.9 °F 77.0 °F 84% 30.01 in 2.0 mi NW 27.6 mph 40.3 mph N/A Rain Light Rain
7:34 PM 80.6 °F 84.6 °F 71.6 °F 74% 30.01 in 2.0 mi NNW 20.7 mph 40.3 mph N/A Rain Light Rain
7:39 PM 77.0 °F - 71.6 °F 83% 30.02 in 2.5 mi North 12.7 mph 29.9 mph N/A Rain Heavy Rain
7:44 PM 75.2 °F - 71.6 °F 89% 30.02 in 2.5 mi North 8.1 mph 20.7 mph N/A Rain Light Rain Showers
7:49 PM 73.4 °F - 71.6 °F 94% 30.02 in 4.0 mi NNE 6.9 mph 20.7 mph N/A Rain Heavy Rain
7:54 PM 73.4 °F - 71.6 °F 94% 30.01 in 5.0 mi Variable 5.8 mph - N/A Rain Light Rain
7:58 PM 73.4 °F - 71.2 °F 93% 30.02 in 4.0 mi ENE 5.8 mph - 0.18 in Rain Heavy Rain
8:08 PM 73.4 °F - 69.8 °F 88% 30.00 in 8.0 mi NE 4.6 mph - N/A Rain Light Rain
8:13 PM 71.6 °F - 69.8 °F 94% 29.99 in 9.0 mi East 5.8 mph - N/A Rain Light Rain
8:18 PM 71.6 °F - 69.8 °F 94% 29.99 in 9.0 mi NE 2.3 mph - N/A Rain Light Rain
8:58 PM 72.7 °F - 70.5 °F 93% 29.99 in 10.0 mi ESE 1.2 mph - 0.04 in   Mostly Cloudy
9:58 PM 72.5 °F - 71.1 °F 95% 29.99 in 10.0 mi SSE 3.5 mph - 0.00 in   Clear
10:58 PM 72.5 °F - 70.5 °F 93% 29.98 in 10.0 mi South 2.3 mph - N/A   Clear
11:58 PM 73.4 °F - 71.2 °F 93% 29.97 in 10.0 mi Calm Calm - N/A   Clear